Time,TemperatureF,DewpointF,PressureIn,WindDirection,WindDirectionDegrees,WindSpeedMPH,WindSpeedGustMPH,Humidity,HourlyPrecipIn,Conditions,Clouds,dailyrainin,SoftwareType,DateUTC
2013-04-05 00:39:00,40.8,30.0,30.08,WSW,238,0.0,0.0,65,0.00,,,0.00,weatherlink.com 1.10,2013-04-05 04:39:00,
2013-04-05 00:54:00,40.8,30.0,30.08,WSW,238,0.0,0.0,66,0.00,,,0.00,weatherlink.com 1.10,2013-04-05 04:54:00,
2013-04-05 01:09:00,40.8,30.0,30.07,SW,218,0.0,1.0,65,0.00,,,0.00,weatherlink.com 1.10,2013-04-05 05:09:00,
2013-04-05 01:24:00,41.0,30.0,30.06,SW,215,0.0,0.0,65,0.00,,,0.00,weatherlink.com 1.10,2013-04-05 05:24:00,
2013-04-05 01:39:00,40.9,30.0,30.04,SW,215,0.0,0.0,65,0.00,,,0.00,weatherlink.com 1.10,2013-04-05 05:39:00,
2013-04-05 01:54:00,41.1,30.0,30.04,SW,220,0.0,0.0,64,0.00,,,0.00,weatherlink.com 1.10,2013-04-05 05:54:00,
2013-04-05 02:09:00,41.3,30.0,30.03,SW,219,0.0,0.0,64,0.00,,,0.00,weatherlink.com 1.10,2013-04-05 06:09:00,
2013-04-05 02:24:00,41.3,30.0,30.02,SW,219,0.0,0.0,65,0.00,,,0.00,weatherlink.com 1.10,2013-04-05 06:24:00,
2013-04-05 02:40:00,41.4,31.0,30.02,SSW,195,1.0,1.0,66,0.00,,,0.00,weatherlink.com 1.10,2013-04-05 06:40:00,
2013-04-05 02:54:00,41.0,32.0,30.01,WSW,243,0.0,1.0,71,0.00,,,0.00,weatherlink.com 1.10,2013-04-05 06:54:00,
2013-04-05 03:09:00,40.6,33.0,30.00,SSW,203,0.0,0.0,74,0.00,,,0.00,weatherlink.com 1.10,2013-04-05 07:09:00,
2013-04-05 03:24:00,39.9,34.0,30.00,SSW,205,0.0,1.0,78,0.00,,,0.00,weatherlink.com 1.10,2013-04-05 07:24:00,
2013-04-05 03:39:00,39.4,34.0,29.99,SSW,205,0.0,1.0,80,0.00,,,0.00,weatherlink.com 1.10,2013-04-05 07:39:00,
2013-04-05 03:54:00,39.1,34.0,29.99,SSW,205,0.0,1.0,82,0.00,,,0.00,weatherlink.com 1.10,2013-04-05 07:54:00,
2013-04-05 04:09:00,39.0,34.0,29.97,SSW,205,0.0,0.0,83,0.00,,,0.00,weatherlink.com 1.10,2013-04-05 08:09:00,
2013-04-05 04:24:00,38.8,34.0,29.97,SSW,205,0.0,0.0,84,0.00,,,0.00,weatherlink.com 1.10,2013-04-05 08:24:00,
2013-04-05 04:39:00,38.8,35.0,29.97,SSW,205,0.0,0.0,85,0.00,,,0.00,weatherlink.com 1.10,2013-04-05 08:39:00,
2013-04-05 04:54:00,38.6,35.0,29.96,SW,226,0.0,0.0,86,0.00,,,0.00,weatherlink.com 1.10,2013-04-05 08:54:00,
2013-04-05 05:10:00,38.5,35.0,29.96,SW,226,0.0,0.0,87,0.00,,,0.00,weatherlink.com 1.10,2013-04-05 09:10:00,
2013-04-05 05:25:00,38.5,35.0,29.95,SW,226,0.0,0.0,87,0.00,,,0.00,weatherlink.com 1.10,2013-04-05 09:25:00,
2013-04-05 05:40:00,38.6,35.0,29.95,SW,226,0.0,0.0,87,0.00,,,0.00,weatherlink.com 1.10,2013-04-05 09:40:00,
2013-04-05 06:10:00,38.8,35.0,29.95,SW,225,0.0,1.0,87,0.00,,,0.00,weatherlink.com 1.10,2013-04-05 10:10:00,
2013-04-05 06:25:00,38.8,35.0,29.94,SW,225,0.0,1.0,87,0.00,,,0.00,weatherlink.com 1.10,2013-04-05 10:25:00,
2013-04-05 06:40:00,38.7,35.0,29.94,SW,225,0.0,0.0,87,0.00,,,0.00,weatherlink.com 1.10,2013-04-05 10:40:00,
2013-04-05 07:10:00,38.9,35.0,29.94,SW,236,0.0,1.0,87,0.00,,,0.00,weatherlink.com 1.10,2013-04-05 11:10:00,
2013-04-05 07:25:00,39.0,36.0,29.93,SW,235,0.0,0.0,87,0.00,,,0.00,weatherlink.com 1.10,2013-04-05 11:25:00,
2013-04-05 07:40:00,39.4,36.0,29.93,SW,231,0.0,0.0,87,0.00,,,0.00,weatherlink.com 1.10,2013-04-05 11:40:00,
2013-04-05 07:55:00,39.8,36.0,29.93,North,352,0.0,2.0,85,0.00,,,0.00,weatherlink.com 1.10,2013-04-05 11:55:00,
2013-04-05 08:10:00,40.0,36.0,29.93,South,184,0.0,1.0,84,0.00,,,0.00,weatherlink.com 1.10,2013-04-05 12:10:00,
2013-04-05 08:25:00,40.5,36.0,29.92,NNE,20,2.0,2.0,83,0.00,,,0.00,weatherlink.com 1.10,2013-04-05 12:25:00,
2013-04-05 08:40:00,41.2,36.0,29.91,North,356,1.0,3.0,80,0.00,,,0.00,weatherlink.com 1.10,2013-04-05 12:40:00,
2013-04-05 08:55:00,41.9,35.0,29.91,South,173,0.0,3.0,76,0.00,,,0.00,weatherlink.com 1.10,2013-04-05 12:55:00,
2013-04-05 09:10:00,43.1,35.0,29.90,WNW,287,0.0,3.0,73,0.00,,,0.00,weatherlink.com 1.10,2013-04-05 13:10:00,
2013-04-05 09:25:00,44.3,34.0,29.89,South,187,0.0,5.0,68,0.00,,,0.00,weatherlink.com 1.10,2013-04-05 13:25:00,
2013-04-05 09:40:00,46.0,33.0,29.88,WNW,290,1.0,7.0,61,0.00,,,0.00,weatherlink.com 1.10,2013-04-05 13:40:00,
2013-04-05 09:55:00,47.5,33.0,29.88,SSE,167,1.0,8.0,58,0.00,,,0.00,weatherlink.com 1.10,2013-04-05 13:55:00,
2013-04-05 10:10:00,48.9,32.0,29.88,North,5,2.0,5.0,53,0.00,,,0.00,weatherlink.com 1.10,2013-04-05 14:10:00,
2013-04-05 10:25:00,48.1,32.0,29.87,NNW,346,1.0,4.0,54,0.00,,,0.00,weatherlink.com 1.10,2013-04-05 14:25:00,
2013-04-05 10:40:00,48.9,31.0,29.88,WNW,288,0.0,5.0,51,0.00,,,0.00,weatherlink.com 1.10,2013-04-05 14:40:00,
2013-04-05 10:55:00,49.9,32.0,29.87,South,191,4.0,7.0,51,0.00,,,0.00,weatherlink.com 1.10,2013-04-05 14:55:00,
2013-04-05 11:10:00,51.3,32.0,29.87,South,186,1.0,9.0,48,0.00,,,0.00,weatherlink.com 1.10,2013-04-05 15:10:00,
2013-04-05 11:25:00,51.9,32.0,29.86,West,274,1.0,8.0,46,0.00,,,0.00,weatherlink.com 1.10,2013-04-05 15:25:00,
2013-04-05 11:40:00,53.0,30.0,29.85,SSW,204,3.0,10.0,42,0.00,,,0.00,weatherlink.com 1.10,2013-04-05 15:40:00,
2013-04-05 11:56:00,54.0,28.0,29.85,SSW,197,2.0,9.0,37,0.00,,,0.00,weatherlink.com 1.10,2013-04-05 15:56:00,
2013-04-05 12:11:00,55.2,28.0,29.84,South,171,2.0,9.0,35,0.00,,,0.00,weatherlink.com 1.10,2013-04-05 16:11:00,
2013-04-05 12:26:00,56.2,28.0,29.83,ENE,60,3.0,8.0,34,0.00,,,0.00,weatherlink.com 1.10,2013-04-05 16:26:00,
2013-04-05 12:41:00,57.0,26.0,29.82,SSE,163,2.0,11.0,30,0.00,,,0.00,weatherlink.com 1.10,2013-04-05 16:41:00,
2013-04-05 12:56:00,57.5,25.0,29.81,West,259,4.0,9.0,29,0.00,,,0.00,weatherlink.com 1.10,2013-04-05 16:56:00,
2013-04-05 13:11:00,58.2,25.0,29.80,NNW,338,2.0,9.0,28,0.00,,,0.00,weatherlink.com 1.10,2013-04-05 17:11:00,
2013-04-05 13:26:00,59.0,23.0,29.80,NNW,335,4.0,9.0,25,0.00,,,0.00,weatherlink.com 1.10,2013-04-05 17:26:00,
2013-04-05 13:41:00,59.6,24.0,29.79,South,179,1.0,6.0,25,0.00,,,0.00,weatherlink.com 1.10,2013-04-05 17:41:00,
2013-04-05 13:56:00,60.1,24.0,29.78,SSW,197,1.0,11.0,25,0.00,,,0.00,weatherlink.com 1.10,2013-04-05 17:56:00,
2013-04-05 14:11:00,60.6,24.0,29.78,South,191,3.0,7.0,25,0.00,,,0.00,weatherlink.com 1.10,2013-04-05 18:11:00,
2013-04-05 14:26:00,61.4,24.0,29.77,SSW,203,2.0,9.0,24,0.00,,,0.00,weatherlink.com 1.10,2013-04-05 18:26:00,
2013-04-05 14:41:00,62.3,27.0,29.76,SSW,210,7.0,7.0,26,0.00,,,0.00,weatherlink.com 1.10,2013-04-05 18:41:00,
2013-04-05 14:56:00,63.0,23.0,29.76,SSE,159,4.0,10.0,22,0.00,,,0.00,weatherlink.com 1.10,2013-04-05 18:56:00,
2013-04-05 15:11:00,63.6,26.0,29.76,SSE,157,2.0,8.0,24,0.00,,,0.00,weatherlink.com 1.10,2013-04-05 19:11:00,
2013-04-05 15:26:00,63.4,28.0,29.76,SSE,163,2.0,16.0,26,0.00,,,0.00,weatherlink.com 1.10,2013-04-05 19:26:00,
2013-04-05 15:41:00,63.2,28.0,29.76,NW,304,3.0,14.0,26,0.00,,,0.00,weatherlink.com 1.10,2013-04-05 19:41:00,
2013-04-05 15:56:00,62.8,26.0,29.76,SE,142,3.0,18.0,25,0.00,,,0.00,weatherlink.com 1.10,2013-04-05 19:56:00,
2013-04-05 16:11:00,62.3,28.0,29.76,SSW,205,4.0,9.0,27,0.00,,,0.00,weatherlink.com 1.10,2013-04-05 20:11:00,
2013-04-05 16:26:00,61.5,26.0,29.76,SW,225,3.0,13.0,26,0.00,,,0.00,weatherlink.com 1.10,2013-04-05 20:26:00,
2013-04-05 16:41:00,61.6,25.0,29.76,SE,143,4.0,17.0,25,0.00,,,0.00,weatherlink.com 1.10,2013-04-05 20:41:00,
2013-04-05 16:56:00,61.5,26.0,29.77,East,94,4.0,14.0,26,0.00,,,0.00,weatherlink.com 1.10,2013-04-05 20:56:00,
2013-04-05 17:11:00,61.4,24.0,29.78,SSW,211,5.0,14.0,24,0.00,,,0.00,weatherlink.com 1.10,2013-04-05 21:11:00,
2013-04-05 17:26:00,61.4,24.0,29.79,SSE,167,9.0,15.0,24,0.00,,,0.00,weatherlink.com 1.10,2013-04-05 21:26:00,
2013-04-05 17:42:00,61.6,24.0,29.80,WSW,253,2.0,11.0,24,0.00,,,0.00,weatherlink.com 1.10,2013-04-05 21:42:00,
2013-04-05 17:56:00,61.6,24.0,29.80,South,186,10.0,10.0,24,0.00,,,0.00,weatherlink.com 1.10,2013-04-05 21:56:00,
2013-04-05 18:12:00,61.1,24.0,29.80,South,187,7.0,12.0,24,0.00,,,0.00,weatherlink.com 1.10,2013-04-05 22:12:00,
2013-04-05 18:26:00,60.9,25.0,29.81,SSE,160,0.0,13.0,25,0.00,,,0.00,weatherlink.com 1.10,2013-04-05 22:26:00,
2013-04-05 18:41:00,60.4,24.0,29.81,NNE,12,2.0,15.0,25,0.00,,,0.00,weatherlink.com 1.10,2013-04-05 22:41:00,
2013-04-05 18:56:00,59.7,24.0,29.82,SW,224,2.0,10.0,25,0.00,,,0.00,weatherlink.com 1.10,2013-04-05 22:56:00,
2013-04-05 19:11:00,58.8,22.0,29.83,SSE,151,1.0,8.0,24,0.00,,,0.00,weatherlink.com 1.10,2013-04-05 23:11:00,
2013-04-05 19:27:00,58.2,20.0,29.83,South,174,1.0,7.0,23,0.00,,,0.00,weatherlink.com 1.10,2013-04-05 23:27:00,
2013-04-05 19:41:00,57.4,21.0,29.84,NNE,25,2.0,7.0,24,0.00,,,0.00,weatherlink.com 1.10,2013-04-05 23:41:00,
2013-04-05 19:56:00,56.6,20.0,29.85,South,172,1.0,5.0,24,0.00,,,0.00,weatherlink.com 1.10,2013-04-05 23:56:00,
2013-04-05 20:12:00,55.9,19.0,29.86,SSE,168,0.0,4.0,24,0.00,,,0.00,weatherlink.com 1.10,2013-04-06 00:12:00,
2013-04-05 20:27:00,55.0,20.0,29.87,South,176,1.0,2.0,25,0.00,,,0.00,weatherlink.com 1.10,2013-04-06 00:27:00,
2013-04-05 20:42:00,54.1,20.0,29.88,NW,326,1.0,1.0,26,0.00,,,0.00,weatherlink.com 1.10,2013-04-06 00:42:00,
2013-04-05 20:57:00,53.6,20.0,29.89,SW,231,1.0,2.0,27,0.00,,,0.00,weatherlink.com 1.10,2013-04-06 00:57:00,
2013-04-05 21:27:00,52.9,20.0,29.93,SSE,166,0.0,4.0,28,0.00,,,0.00,weatherlink.com 1.10,2013-04-06 01:27:00,
2013-04-05 21:42:00,52.5,21.0,29.94,SSE,158,2.0,9.0,29,0.00,,,0.00,weatherlink.com 1.10,2013-04-06 01:42:00,
2013-04-05 21:57:00,51.9,22.0,29.95,NNW,348,6.0,6.0,31,0.00,,,0.00,weatherlink.com 1.10,2013-04-06 01:57:00,
2013-04-05 22:12:00,50.8,25.0,29.97,West,264,1.0,6.0,36,0.00,,,0.00,weatherlink.com 1.10,2013-04-06 02:12:00,
2013-04-05 22:27:00,49.5,25.0,29.98,NNW,337,1.0,7.0,39,0.00,,,0.00,weatherlink.com 1.10,2013-04-06 02:27:00,
2013-04-05 22:42:00,48.1,25.0,29.98,NNE,23,2.0,8.0,41,0.00,,,0.00,weatherlink.com 1.10,2013-04-06 02:42:00,
2013-04-05 22:57:00,46.9,25.0,29.99,SSE,150,2.0,12.0,43,0.00,,,0.00,weatherlink.com 1.10,2013-04-06 02:57:00,
2013-04-05 23:12:00,46.1,25.0,29.99,SSE,158,3.0,9.0,44,0.00,,,0.00,weatherlink.com 1.10,2013-04-06 03:12:00,
2013-04-05 23:27:00,45.4,26.0,30.01,NNW,337,2.0,4.0,46,0.00,,,0.00,weatherlink.com 1.10,2013-04-06 03:27:00,
2013-04-05 23:42:00,44.8,25.0,30.01,North,11,2.0,7.0,46,0.00,,,0.00,weatherlink.com 1.10,2013-04-06 03:42:00,
2013-04-05 23:57:00,44.4,25.0,30.02,NNW,340,0.0,5.0,46,0.00,,,0.00,weatherlink.com 1.10,2013-04-06 03:57:00,